Location: Hurstbourne Priors
(51.2000°N, 1.3667°W)
Time: 22:36:46
(UTC+00:00)

Altair - Pass Details

Date: 12 April 2021
Orbit: 1501 x 1683 km, 47.2° (Epoch: 13 May)

Event Time Altitude Azimuth Distance (km) Brightness Sun altitude
Rises 06:16:12 0° 190° (S) 4,840 10.0 8.4°
Reaches altitude 10° 06:20:22 10° 175° (S) 3,826 9.7 9.0°
Maximum altitude 06:26:55 21° 132° (SE) 3,013 9.9 10.1°
Drops below altitude 10° 06:33:20 10° 88° (E) 3,738 13.9 11.1°
Sets 06:37:18 0° 74° (ENE) 4,697 11.7 11.7°
